(97975) = 2000 QG168

Discovered at Socorro on 2000-08-31 by LINEAR.

Orbit

Orbit type: Main Belt

Note: WebGL enabled browser required.

epoch2024-03-31.0
epoch JD2460400.5
perihelion date2022-05-31.70468
perihelion JD2459731.20468
argument of perihelion (°)118.59128
ascending node (°)245.57770
inclination (°)3.68344
eccentricity0.1893513
perihelion distance (AU)1.9049090
Tisserand w.r.t. Jupiter3.5
ΔV w.r.t. Earth (km/sec)8.7
semimajor axis (AU)2.3498575
mean anomaly (°)183.12993
mean daily motion (°/day)0.27361600
aphelion distance (AU)2.795
period (years)3.6
P-vector [x]0.99570241
P-vector [y]0.04494896
P-vector [z]0.08097095
Q-vector [x]-0.07179817
Q-vector [y]0.92690881
Q-vector [z]0.36835457
absolute magnitude16.19
phase slope0.15
uncertainty0
referenceMPEC 2024-E109
observations used844
oppositions19
arc length (days)11047
first opposition used1993
last opposition used2024
residual rms (arc-secs)0.65
perturbers coarse indicatorM-v
perturbers precise indicator003Ek
first observation date used1993-11-17.0
last observation date used2024-02-15.0
computer nameMPCLINUX
JD of orbit computation2456406.206346
perihelion JD uncertainty (days)5.3626E-05
argument of perihelion uncertainty (°)8.8263E-05
ascending node uncertainty (°)8.7160E-05
inclination uncertainty (°)5.0103E-06
eccentricity uncertainty 5.3076E-08
perihelion distance uncertainty (AU)1.2390E-07
Minimum Orbit Intersection Distances (in AU)
for orbit epoch: 2460400.5, reference: E2024-G95
Mercury1.54739
Venus1.18606
Earth0.90627
Mars0.50898
Jupiter2.67015
Saturn6.58654
Uranus15.672
Neptune27.7099

Observations

855 total observations over interval: 1993 11 17.26922 – 2024 02 15.572299
These data are available for download (format description).

Date (UT) J2000 RA J2000 Dec Magn Location Ref
1993 11 17.26922 02 11 13.91 +15 53 15.5 19.6 V 691 – Steward Observatory, Kitt Peak-Spacewatch MPS 79731
1993 11 17.27758 02 11 13.55 +15 53 13.3 18.4 V 691 – Steward Observatory, Kitt Peak-Spacewatch MPS 79731
1993 11 17.28508 02 11 13.23 +15 53 10.2 18.2 V 691 – Steward Observatory, Kitt Peak-Spacewatch MPS 79731
1993 11 20.25715 02 09 26.08 +15 33 34.4 19.0 V 691 – Steward Observatory, Kitt Peak-Spacewatch MPS 79731
1993 11 20.26547 02 09 25.76 +15 33 31.2 19.1 V 691 – Steward Observatory, Kitt Peak-Spacewatch MPS 79731
1993 11 20.27341 02 09 25.46 +15 33 28.4 19.1 V 691 – Steward Observatory, Kitt Peak-Spacewatch MPS 79731
1997 11 29.39971 07 50 23.91 +18 05 23.0 19.2 R 688 – Lowell Observatory, Anderson Mesa Station MPS 82629
1997 11 29.42883 07 50 23.33 +18 05 20.4   688 – Lowell Observatory, Anderson Mesa Station MPS 82629
2000 08 09.37208 23 25 05.30 +03 45 19.6 18.6   704 – Lincoln Laboratory ETS, New Mexico MPS 18334
2000 08 09.38619 23 25 05.02 +03 45 20.6 19.0   704 – Lincoln Laboratory ETS, New Mexico MPS 18334
2000 08 09.40031 23 25 04.82 +03 45 22.3 19.5   704 – Lincoln Laboratory ETS, New Mexico MPS 18334
2000 08 09.41444 23 25 04.58 +03 45 24.0 19.6   704 – Lincoln Laboratory ETS, New Mexico MPS 18334
2000 08 09.42858 23 25 04.37 +03 45 24.8 18.7   704 – Lincoln Laboratory ETS, New Mexico MPS 18334
2000 08 31.30623 23 13 44.16 +03 13 37.3 17.5   704 – Lincoln Laboratory ETS, New Mexico MPS 18334
2000 08 31.31941 23 13 43.53 +03 13 34.2 18.2   704 – Lincoln Laboratory ETS, New Mexico MPS 18334
2000 08 31.33258 23 13 42.89 +03 13 30.6 18.0   704 – Lincoln Laboratory ETS, New Mexico MPS 18334
2000 08 31.34574 23 13 42.25 +03 13 27.6 18.0   704 – Lincoln Laboratory ETS, New Mexico MPS 18334
2000 08 31.35889 23 13 41.62 +03 13 24.5 17.8   704 – Lincoln Laboratory ETS, New Mexico MPS 18334
2000 09 03.26453 23 11 27.60 +03 00 35.1 18.1   704 – Lincoln Laboratory ETS, New Mexico MPS 18334
2000 09 03.27798 23 11 26.91 +03 00 31.7 18.1   704 – Lincoln Laboratory ETS, New Mexico MPS 18334
2000 09 03.29120 23 11 26.24 +03 00 28.6 18.2   704 – Lincoln Laboratory ETS, New Mexico MPS 18334
2000 09 03.30471 23 11 25.57 +03 00 24.6 18.0   704 – Lincoln Laboratory ETS, New Mexico MPS 18334
2000 09 03.31791 23 11 24.92 +03 00 20.6 17.7   704 – Lincoln Laboratory ETS, New Mexico MPS 18334
2000 09 05.33086 23 09 49.13 +02 50 30.3 17.3 R 699 – Lowell Observatory-LONEOS MPS 18334
2000 09 05.34466 23 09 48.43 +02 50 26.2   699 – Lowell Observatory-LONEOS MPS 18334
2000 09 05.35849 23 09 47.73 +02 50 21.9   699 – Lowell Observatory-LONEOS MPS 18334
2000 09 05.37234 23 09 46.99 +02 50 17.8   699 – Lowell Observatory-LONEOS MPS 18334
2000 09 07.25696 23 08 16.22 +02 40 26.0 17.5   704 – Lincoln Laboratory ETS, New Mexico MPS 18334
2000 09 07.27092 23 08 15.47 +02 40 21.9 17.6   704 – Lincoln Laboratory ETS, New Mexico MPS 18334
2000 09 07.28462 23 08 14.76 +02 40 17.3 17.2   704 – Lincoln Laboratory ETS, New Mexico MPS 18334
2000 09 07.29803 23 08 14.07 +02 40 12.9 16.8   704 – Lincoln Laboratory ETS, New Mexico MPS 18334
2000 09 07.31140 23 08 13.38 +02 40 09.0 16.7   704 – Lincoln Laboratory ETS, New Mexico MPS 18334
2000 09 08.19783 23 07 30.88 +02 35 17.6 17.3   704 – Lincoln Laboratory ETS, New Mexico MPS 18334
2000 09 08.22583 23 07 29.41 +02 35 08.8 17.7   704 – Lincoln Laboratory ETS, New Mexico MPS 18334
2000 09 08.23981 23 07 28.69 +02 35 04.4 17.2   704 – Lincoln Laboratory ETS, New Mexico MPS 18334
2000 09 08.25384 23 07 27.96 +02 34 59.9 17.8   704 – Lincoln Laboratory ETS, New Mexico MPS 18334
2000 09 21.32836 22 57 21.81 +01 14 21.3 18.4   608 – Haleakala-AMOS MPS 19431
2000 09 21.33950 22 57 21.30 +01 14 16.8 18.9   608 – Haleakala-AMOS MPS 19431
2000 09 21.35096 22 57 20.81 +01 14 12.7 18.9   608 – Haleakala-AMOS MPS 19431
2000 09 23.25202 22 56 03.54 +01 01 48.4 18.9   704 – Lincoln Laboratory ETS, New Mexico MPS 19431
2000 09 23.26684 22 56 03.07 +01 01 43.5 19.8   704 – Lincoln Laboratory ETS, New Mexico MPS 19431
2000 09 23.29661 22 56 01.62 +01 01 29.0 19.6   704 – Lincoln Laboratory ETS, New Mexico MPS 19431
2000 09 23.31132 22 56 00.95 +01 01 24.9 19.0   704 – Lincoln Laboratory ETS, New Mexico MPS 19431
2000 09 26.25409 22 54 11.09 +00 42 26.7 18.0   704 – Lincoln Laboratory ETS, New Mexico MPS 19431
2000 09 26.26864 22 54 10.52 +00 42 21.3 18.6   704 – Lincoln Laboratory ETS, New Mexico MPS 19431
2000 09 26.28532 22 54 09.87 +00 42 14.8 18.4   704 – Lincoln Laboratory ETS, New Mexico MPS 19431
2000 09 26.30003 22 54 09.31 +00 42 08.4 18.7   704 – Lincoln Laboratory ETS, New Mexico MPS 19431
2000 09 26.31585 22 54 08.73 +00 42 02.5 18.7   704 – Lincoln Laboratory ETS, New Mexico MPS 19431
2000 10 02.304940 22 51 06.521 +00 05 05.88 18.14 V 645 – Apache Point-Sloan Digital Sky Survey MPS 79731
2000 10 02.308412 22 51 06.423 +00 05 04.68 19.05   645 – Apache Point-Sloan Digital Sky Survey MPS 79731
2000 10 03.18474 22 50 45.43 -00 00 01.3 17.9   704 – Lincoln Laboratory ETS, New Mexico MPS 19431
2000 10 03.19994 22 50 45.02 -00 00 06.8 18.1   704 – Lincoln Laboratory ETS, New Mexico MPS 19431
2000 10 03.21522 22 50 44.59 -00 00 12.5 18.5   704 – Lincoln Laboratory ETS, New Mexico MPS 19431
2000 10 03.23046 22 50 44.18 -00 00 17.2 18.6   704 – Lincoln Laboratory ETS, New Mexico MPS 19431
2000 10 03.24574 22 50 43.78 -00 00 22.7 18.3   704 – Lincoln Laboratory ETS, New Mexico MPS 19431
2000 10 25.15202 22 50 11.32 -01 27 55.0 18.6   704 – Lincoln Laboratory ETS, New Mexico MPS 21031
2000 10 25.17926 22 50 11.85 -01 27 58.5 19.2   704 – Lincoln Laboratory ETS, New Mexico MPS 21031
2000 10 25.20911 22 50 12.33 -01 28 02.2 19.0   704 – Lincoln Laboratory ETS, New Mexico MPS 21031
2002 02 11.30349 10 13 02.29 +04 54 39.3 19.7   704 – Lincoln Laboratory ETS, New Mexico MPS 54621
2002 02 11.31109 10 13 01.84 +04 54 39.9 19.6   704 – Lincoln Laboratory ETS, New Mexico MPS 54621
2002 02 11.31773 10 13 01.45 +04 54 43.2 20.1   704 – Lincoln Laboratory ETS, New Mexico MPS 54621
2002 02 11.32534 10 13 01.03 +04 54 43.9 19.4   704 – Lincoln Laboratory ETS, New Mexico MPS 54621
2002 02 11.33198 10 13 00.60 +04 54 46.3 20.1   704 – Lincoln Laboratory ETS, New Mexico MPS 54621
2002 02 11.33958 10 13 00.19 +04 54 48.2 19.7   704 – Lincoln Laboratory ETS, New Mexico MPS 54621
2002 02 11.34622 10 12 59.81 +04 54 51.9 19.9   704 – Lincoln Laboratory ETS, New Mexico MPS 54621
2002 02 11.35381 10 12 59.33 +04 54 52.7 20.0   704 – Lincoln Laboratory ETS, New Mexico MPS 54621
2002 02 11.36046 10 12 58.93 +04 54 54.8 20.0   704 – Lincoln Laboratory ETS, New Mexico MPS 54621
2002 02 11.36809 10 12 58.51 +04 54 56.3 19.7   704 – Lincoln Laboratory ETS, New Mexico MPS 54621
2002 02 16.44935 10 08 00.71 +05 20 39.0 20.6   644 – Palomar Mountain/NEAT MPS 54621
2002 02 16.46338 10 07 59.83 +05 20 43.1 20.0   644 – Palomar Mountain/NEAT MPS 54621
2002 02 16.47856 10 07 58.86 +05 20 48.0 20.4   644 – Palomar Mountain/NEAT MPS 54621
2002 03 12.192820 09 46 31.663 +07 29 13.17 20.22 V 645 – Apache Point-Sloan Digital Sky Survey MPS 79731
2002 03 12.196292 09 46 31.505 +07 29 14.25 21.12   645 – Apache Point-Sloan Digital Sky Survey MPS 79731
2003 05 25.49853 16 03 45.44 -21 02 04.8 20.0   608 – Haleakala-AMOS MPS 79731
2003 05 25.50874 16 03 44.81 -21 02 02.4 20.2   608 – Haleakala-AMOS MPS 79731
2003 05 25.52012 16 03 44.04 -21 01 59.7 20.8   608 – Haleakala-AMOS MPS 79731
2003 05 29.31004 15 59 43.73 -20 44 53.7 19.2 C 704 – Lincoln Laboratory ETS, New Mexico MPS 291131
2003 05 29.32075 15 59 43.04 -20 44 49.6 19.0 C 704 – Lincoln Laboratory ETS, New Mexico MPS 291131
2003 05 30.26639 15 58 43.60 -20 40 30.0 19.1   704 – Lincoln Laboratory ETS, New Mexico MPS 79731
2003 05 30.27695 15 58 42.81 -20 40 27.0 19.5   704 – Lincoln Laboratory ETS, New Mexico MPS 79731
2003 05 30.28740 15 58 42.07 -20 40 24.1 19.6   704 – Lincoln Laboratory ETS, New Mexico MPS 79731
2003 05 30.29786 15 58 41.51 -20 40 21.3 19.6   704 – Lincoln Laboratory ETS, New Mexico MPS 79731
2003 06 02.26601 15 55 36.56 -20 26 42.2 19.7 R 701 – Junk Bond Observatory, Sierra Vista MPS 79731
2003 06 02.28468 15 55 35.42 -20 26 37.9 19.1 R 701 – Junk Bond Observatory, Sierra Vista MPS 79731
